When you browse on this site, cookies collect data to enhance your experience and personalize the content and advertising you see.
Visit our Privacy Policy to learn more. By continuing to use the site, you agree to this use of cookies and data.
  • In Deutschland
  • Länderverzeichnis
  • Für 7 Tage
  • Wassertemperatur
  • Wetterkarte
  • Widgets
  • user-avatar
    Anmelden

    Stündliche Wetter Voorschoten

    Heute, 17 Februar, Montag

    Zeit Temperatur Niederschläge Wind Luftdruck Luftfeuchtigkeit
    00:00 +6°C° 0 mm 11 m/S 753 mmHg 67%
    01:00 +6°C° 0 mm 11 m/S 753 mmHg 65%
    02:00 +6°C° 0 mm 11 m/S 754 mmHg 63%
    03:00 +4°C° 0 mm 11 m/S 755 mmHg 60%
    04:00 +4°C° 0 mm 11 m/S 755 mmHg 63%
    05:00 +5°C° 0 mm 10 m/S 755 mmHg 66%
    06:00 +5°C° 0 mm 9 m/S 756 mmHg 75%
    07:00 +5°C° 0 mm 10 m/S 756 mmHg 74%
    08:00 +6°C° 0 mm 10 m/S 756 mmHg 74%
    09:00 +6°C° 0 mm 11 m/S 756 mmHg 74%
    10:00 +6°C° 0.3 mm 11 m/S 756 mmHg 75%
    11:00 +6°C° 0.3 mm 11 m/S 756 mmHg 77%
    12:00 +6°C° 0 mm 9 m/S 757 mmHg 78%
    13:00 +6°C° 0.1 mm 10 m/S 756 mmHg 73%
    14:00 +7°C° 0.1 mm 10 m/S 756 mmHg 67%
    15:00 +7°C° 0.1 mm 11 m/S 756 mmHg 61%
    16:00 +7°C° 0.1 mm 10 m/S 757 mmHg 66%
    17:00 +6°C° 0.1 mm 9 m/S 757 mmHg 71%
    18:00 +6°C° 0.1 mm 8 m/S 757 mmHg 77%
    19:00 +6°C° 0.4 mm 9 m/S 758 mmHg 76%
    20:00 +6°C° 0.4 mm 9 m/S 758 mmHg 76%
    21:00 +6°C° 0.4 mm 9 m/S 759 mmHg 75%
    22:00 +6°C° 0 mm 9 m/S 760 mmHg 75%
    23:00 +5°C° 0 mm 9 m/S 760 mmHg 74%

    Morgen, 18 Februar, Dienstag

    Zeit Temperatur Niederschläge Wind Luftdruck Luftfeuchtigkeit
    00:00 +5°C° 0 mm 9 m/S 761 mmHg 73%
    01:00 +5°C° 0 mm 10 m/S 762 mmHg 71%
    02:00 +3°C° 0 mm 10 m/S 762 mmHg 68%
    03:00 +3°C° 0 mm 10 m/S 762 mmHg 65%
    04:00 +3°C° 0 mm 9 m/S 763 mmHg 66%
    05:00 +3°C° 0 mm 9 m/S 764 mmHg 66%
    06:00 +2°C° 0 mm 9 m/S 764 mmHg 67%
    07:00 +3°C° 0 mm 9 m/S 764 mmHg 66%
    08:00 +3°C° 0 mm 9 m/S 765 mmHg 66%
    09:00 +5°C° 0 mm 9 m/S 765 mmHg 65%
    10:00 +5°C° 0.1 mm 9 m/S 765 mmHg 64%
    11:00 +6°C° 0.1 mm 10 m/S 765 mmHg 62%
    12:00 +6°C° 0.1 mm 10 m/S 764 mmHg 61%
    13:00 +6°C° 0 mm 10 m/S 764 mmHg 61%
    14:00 +6°C° 0 mm 10 m/S 764 mmHg 61%
    15:00 +6°C° 0 mm 10 m/S 763 mmHg 62%
    16:00 +6°C° 0 mm 10 m/S 763 mmHg 65%
    17:00 +6°C° 0 mm 10 m/S 762 mmHg 67%
    18:00 +6°C° 0 mm 10 m/S 762 mmHg 70%
    19:00 +6°C° 0.3 mm 10 m/S 761 mmHg 74%
    20:00 +5°C° 0.3 mm 10 m/S 760 mmHg 77%
    21:00 +5°C° 0.3 mm 10 m/S 760 mmHg 81%
    22:00 +5°C° 0.6 mm 10 m/S 759 mmHg 82%
    23:00 +5°C° 0.6 mm 10 m/S 759 mmHg 83%

    übermorgen, 19 Februar, Mittwoch

    Zeit Temperatur Niederschläge Wind Luftdruck Luftfeuchtigkeit
    00:00 +3°C° 0.6 mm 9 m/S 758 mmHg 83%
    01:00 +3°C° 0.2 mm 10 m/S 759 mmHg 78%
    02:00 +3°C° 0.2 mm 10 m/S 759 mmHg 73%
    03:00 +2°C° 0.2 mm 10 m/S 759 mmHg 68%
    04:00 +2°C° 0.1 mm 10 m/S 760 mmHg 68%
    05:00 +2°C° 0.1 mm 10 m/S 761 mmHg 68%
    06:00 +2°C° 0.1 mm 9 m/S 761 mmHg 68%
    07:00 +2°C° 0 mm 9 m/S 762 mmHg 67%
    08:00 +2°C° 0 mm 9 m/S 762 mmHg 66%
    09:00 +4°C° 0 mm 8 m/S 763 mmHg 65%
    10:00 +4°C° 0 mm 8 m/S 763 mmHg 64%
    11:00 +4°C° 0 mm 8 m/S 764 mmHg 64%
    12:00 +4°C° 0 mm 8 m/S 764 mmHg 64%
    13:00 +4°C° 0 mm 8 m/S 764 mmHg 63%
    14:00 +4°C° 0 mm 8 m/S 764 mmHg 62%
    15:00 +4°C° 0 mm 8 m/S 764 mmHg 61%
    16:00 +4°C° 0 mm 7 m/S 764 mmHg 64%
    17:00 +4°C° 0 mm 7 m/S 764 mmHg 68%
    18:00 +3°C° 0 mm 6 m/S 763 mmHg 71%
    19:00 +4°C° 0.1 mm 7 m/S 763 mmHg 77%
    20:00 +4°C° 0.1 mm 7 m/S 762 mmHg 82%
    21:00 +5°C° 0.1 mm 7 m/S 762 mmHg 87%
    22:00 +5°C° 0.2 mm 8 m/S 761 mmHg 87%
    23:00 +5°C° 0.2 mm 8 m/S 761 mmHg 87%

    20 Februar, Donnerstag

    Zeit Temperatur Niederschläge Wind Luftdruck Luftfeuchtigkeit
    00:00 +5°C° 0.2 mm 9 m/S 760 mmHg 86%
    01:00 +6°C° 0.2 mm 9 m/S 760 mmHg 85%
    02:00 +6°C° 0.2 mm 9 m/S 759 mmHg 84%
    03:00 +6°C° 0.2 mm 10 m/S 759 mmHg 83%
    04:00 +6°C° 0 mm 9 m/S 759 mmHg 82%
    05:00 +6°C° 0 mm 9 m/S 759 mmHg 82%
    06:00 +6°C° 0 mm 9 m/S 758 mmHg 81%
    07:00 +6°C° 0 mm 9 m/S 758 mmHg 79%
    08:00 +6°C° 0 mm 9 m/S 758 mmHg 78%
    09:00 +6°C° 0 mm 9 m/S 758 mmHg 77%
    10:00 +6°C° 0 mm 9 m/S 757 mmHg 73%
    11:00 +7°C° 0 mm 10 m/S 757 mmHg 70%
    12:00 +7°C° 0 mm 10 m/S 757 mmHg 67%
    13:00 +8°C° 0 mm 10 m/S 756 mmHg 67%
    14:00 +8°C° 0 mm 10 m/S 756 mmHg 67%
    15:00 +8°C° 0 mm 11 m/S 755 mmHg 67%
    16:00 +8°C° 0.2 mm 11 m/S 755 mmHg 71%
    17:00 +8°C° 0.2 mm 12 m/S 755 mmHg 76%
    18:00 +7°C° 0.2 mm 12 m/S 755 mmHg 80%
    19:00 +5°C° 0.1 mm 12 m/S 757 mmHg 75%
    20:00 +6°C° 0.1 mm 11 m/S 758 mmHg 71%
    21:00 +5°C° 0.1 mm 10 m/S 759 mmHg 66%
    22:00 +3°C° 0 mm 10 m/S 760 mmHg 65%
    23:00 +3°C° 0 mm 10 m/S 761 mmHg 64%

    21 Februar, Freitag

    Zeit Temperatur Niederschläge Wind Luftdruck Luftfeuchtigkeit
    00:00 +2°C° 0 mm 10 m/S 762 mmHg 63%
    01:00 +2°C° 0 mm 10 m/S 763 mmHg 63%
    02:00 +2°C° 0 mm 10 m/S 764 mmHg 63%
    03:00 +2°C° 0 mm 10 m/S 764 mmHg 63%
    04:00 +2°C° 0 mm 9 m/S 765 mmHg 64%
    05:00 +2°C° 0 mm 9 m/S 766 mmHg 65%
    06:00 +2°C° 0 mm 9 m/S 767 mmHg 66%
    13:00 +6°C° 0 mm 9 m/S 770 mmHg 59%
    14:00 +6°C° 0 mm 9 m/S 769 mmHg 60%
    15:00 +6°C° 0 mm 9 m/S 769 mmHg 60%
    16:00 +6°C° 0 mm 9 m/S 769 mmHg 63%
    17:00 +5°C° 0 mm 9 m/S 769 mmHg 66%
    18:00 +5°C° 0 mm 9 m/S 769 mmHg 69%
    19:00 +5°C° 0 mm 10 m/S 768 mmHg 70%
    20:00 +5°C° 0 mm 10 m/S 768 mmHg 71%
    21:00 +4°C° 0 mm 11 m/S 768 mmHg 72%
    22:00 +4°C° 0 mm 11 m/S 768 mmHg 73%
    23:00 +6°C° 0 mm 11 m/S 767 mmHg 73%

    22 Februar, Samstag

    Zeit Temperatur Niederschläge Wind Luftdruck Luftfeuchtigkeit
    00:00 +5°C° 0 mm 12 m/S 767 mmHg 74%
    01:00 +5°C° 0.1 mm 12 m/S 767 mmHg 75%
    02:00 +5°C° 0.1 mm 12 m/S 766 mmHg 76%
    03:00 +5°C° 0.1 mm 12 m/S 766 mmHg 77%
    04:00 +5°C° 0 mm 12 m/S 766 mmHg 78%
    05:00 +5°C° 0 mm 13 m/S 765 mmHg 78%
    06:00 +5°C° 0 mm 13 m/S 765 mmHg 79%
    07:00 +5°C° 0 mm 13 m/S 765 mmHg 80%
    08:00 +7°C° 0 mm 13 m/S 765 mmHg 80%
    09:00 +7°C° 0 mm 13 m/S 765 mmHg 81%
    10:00 +7°C° 0 mm 13 m/S 765 mmHg 82%
    11:00 +8°C° 0 mm 13 m/S 765 mmHg 82%
    12:00 +8°C° 0 mm 13 m/S 765 mmHg 82%
    13:00 +8°C° 0 mm 13 m/S 765 mmHg 82%
    14:00 +9°C° 0 mm 13 m/S 765 mmHg 82%
    15:00 +9°C° 0 mm 13 m/S 765 mmHg 82%
    16:00 +9°C° 0 mm 13 m/S 765 mmHg 82%
    17:00 +9°C° 0 mm 13 m/S 765 mmHg 82%
    18:00 +9°C° 0 mm 12 m/S 766 mmHg 82%
    19:00 +9°C° 0.1 mm 12 m/S 766 mmHg 83%
    20:00 +9°C° 0.1 mm 11 m/S 766 mmHg 84%
    21:00 +9°C° 0.1 mm 11 m/S 766 mmHg 85%
    22:00 +9°C° 0.1 mm 10 m/S 766 mmHg 86%
    23:00 +9°C° 0.1 mm 10 m/S 767 mmHg 87%
    Mehr zeigen